Hourly Data Report for July 19, 2021

CLYDE RIVER A
NUNAVUT
Current Station Operator: NAVCAN

70°29'09.000" N
68°31'01.000" W
26.50 m
2400804
71090
YCY

Download Data

Hourly Data (July 2021)
Hourly Data Report for July 19, 2021
TIME
LST
Temp Definition
°C
Dew Point Definition
°C
Rel Hum Definition
%
Precip. Amount Definition
mm

Wind Dir Definition
10's deg

Wind Spd Definition
km/h
Visibility Definition
km
Stn Press Definition
kPa
Hmdx Definition


Wind Chill Definition


Weather Definition


00:00 3.2 0.6 83 0.0 33 17 16.1 100.80     LegendNANA
01:00 3.2 0.3 81 0.0 32 15 16.1 100.78     LegendNANA
02:00 3.3 0.1 79 0.0 32 13 16.1 100.75     LegendNANA
03:00 3.6 0.2 78 0.0 32 13 16.1 100.72     LegendNANA
04:00 4.0 -0.3 73 0.0 31 11 16.1 100.69     LegendNANA
05:00 4.0 0.5 78 0.0 34 15 16.1 100.66     LegendNANA
06:00 4.4 0.3 75 0.0 32 18 16.1 100.64     LegendNANA
07:00 5.2 0.0 69 0.0 35 17 16.1 100.62     LegendNANA
08:00 5.7 -2.3 57 0.0 35 17 16.1 100.59     LegendNANA
09:00 5.9 -2.0 57 0.0 34 15 16.1 100.57     LegendNANA
10:00 5.9 -1.9 57 0.0 2 11 16.1 100.52     LegendNANA
11:00 6.6 -2.6 52 0.0 1 11 16.1 100.47     LegendNANA
12:00 6.8 -2.3 52 0.0 36 13 16.1 100.41     LegendNANA
13:00 6.6 -2.2 53 0.0 35 13 16.1 100.37     LegendNANA
14:00 5.7 0.6 70 0.0 2 15 16.1 100.36     LegendNANA
15:00 5.2 0.9 74 0.0 3 9 16.1 100.35     LegendNANA
16:00 4.9 1.4 78 0.0 4 11 16.1 100.33     LegendNANA
17:00 3.9 1.5 84 0.0 7 8 16.1 100.29     Rain
18:00 2.9 0.9 87 0.0 9 5 16.1 100.26     Rain
19:00 3.0 0.6 84 0.0   0 16.1 100.20     Rain
20:00 2.7 0.0 82 0.0 12 9 16.1 100.17     LegendNANA
21:00 2.7 0.1 83 0.0 15 8 16.1 100.11     LegendNANA
22:00 2.6 0.2 84 0.0 15 5 16.1 100.03     LegendNANA
23:00 2.6 -0.5 80 0.0 14 11 16.1 99.96     LegendNANA

Notes on Data Quality.

Legend

  • E = Estimated
  • M = Missing
  • NA = Not Available*
  • [empty] = Indicates an unobserved value
Date modified: